Location: Unspecified
(0.0000°N, 0.0000°E)
Time: 20:27:36
(UTC+00:00)

Hubble Space Telescope - Pass Details

Date: 31 May 2023
Orbit: 525 x 528 km, 28.5° (Epoch: 04 June)

Event Time Altitude Azimuth Distance (km) Brightness Sun altitude
Rises 20:32:50 0° 298° (WNW) 2,634 5.3 -35.5°
Reaches altitude 10° 20:35:05 10° 296° (WNW) 1,747 4.1 -36.0°
Enters shadow 20:35:19 11° 296° (WNW) 1,657 4.0 -36.1°
